Location: Grieser Field
(39.7333°N, 81.7975°W)
Time: 13:55:40
(UTC-04:00)

MOS 1-B - Visible Passes

Search period start: 29 July 2015 00:00
Search period end: 08 August 2015 00:00
Orbit: 906 x 914 km, 99.2° (Epoch: 28 July)

Date Brightness Start Highest point End Pass type
(mag) Time Alt. Az. Time Alt. Az. Time Alt. Az.
29 Jul 6.2 02:56:27 10° NE 03:00:32 20° E 03:02:49 17° ESE visible
29 Jul 4.6 04:37:11 10° N 04:42:50 55° WNW 04:46:04 25° SW visible
30 Jul 6.1 03:01:44 10° NE 03:06:07 23° E 03:08:20 19° ESE visible
30 Jul 4.7 04:42:44 10° N 04:48:19 49° WNW 04:51:35 24° SW visible
31 Jul 5.9 03:07:04 10° NE 03:11:41 25° E 03:13:51 21° SE visible
31 Jul 4.8 04:48:19 10° N 04:53:48 44° WNW 04:57:06 22° SW visible
01 Aug 5.8 03:12:25 10° NE 03:17:16 28° E 03:19:23 23° SE visible
01 Aug 5.0 04:53:54 10° N 04:59:16 40° WNW 05:02:38 21° SW visible
02 Aug 5.7 03:17:47 10° NE 03:22:49 31° E 03:24:54 25° SE visible
02 Aug 5.1 04:59:29 10° N 05:04:45 36° WNW 05:08:09 19° WSW visible
03 Aug 5.5 03:23:10 10° NNE 03:28:23 35° E 03:30:25 28° SE visible
03 Aug 5.2 05:05:06 10° N 05:10:13 33° WNW 05:13:40 18° WSW visible
04 Aug 5.3 03:28:34 10° NNE 03:33:56 39° E 03:35:56 30° SE visible
04 Aug 5.4 05:10:43 10° N 05:15:41 30° WNW 05:19:11 16° WSW visible
05 Aug 5.2 03:34:00 10° NNE 03:39:28 43° E 03:41:27 33° SE visible
05 Aug 5.5 05:16:21 10° N 05:21:09 27° WNW 05:24:42 15° WSW visible
06 Aug 5.0 03:39:26 10° NNE 03:45:00 48° E 03:46:58 35° SSE visible
06 Aug 5.6 05:22:00 10° NNW 05:26:36 24° WNW 05:30:13 13° WSW visible
07 Aug 4.8 03:44:53 10° NNE 03:50:32 54° E 03:52:29 38° SSE visible
07 Aug 5.7 05:27:40 10° NNW 05:32:04 22° WNW 05:35:44 12° WSW visible
